Theta_e
324 323 320 317 315 314 313 312 310 309 309 309 308 307 306 305 305 304 304 304 304 304 304 304 304 304 304 304 303 303 302 302 301 301 300 301 300 299 299 299 300 300 300 299 299 299 298 298 298 297 297 297 297 296 296 295 296 295 295 295 295 295 294 294 293 293 293 292 292
324 323 319 315 313 313 313 312 310 309 309 309 309 308 307 306 305 305 305 304 304 304 304 304 304 304 304 304 303 303 302 302 302 301 301 301 300 299 299 299 300 300 300 299 299 299 298 298 297 297 297 297 297 296 296 295 295 295 295 295 295 295 294 294 294 294 293 293 293
324 323 321 318 316 315 314 312 311 310 310 309 309 308 307 306 306 305 305 305 305 305 304 304 304 304 304 304 304 303 303 302 302 301 301 301 300 299 299 300 300 300 299 299 299 298 298 297 297 297 296 297 296 296 296 295 295 295 295 295 295 295 295 295 294 294 294 293 293
324 323 321 319 317 316 314 313 312 311 310 310 309 308 308 307 306 306 305 305 305 305 304 304 304 304 304 304 304 304 303 302 302 301 301 301 300 300 300 301 300 300 300 299 299 298 298 298 297 296 296 296 296 296 296 295 295 295 295 295 295 295 295 295 295 295 294 294 293
324 323 322 319 318 317 315 314 313 312 311 310 309 308 308 307 306 306 305 305 305 305 305 305 305 304 305 305 304 304 303 302 300 301 301 301 300 300 300 300 300 300 299 299 299 298 298 298 297 297 296 296 296 296 295 295 295 295 295 295 295 295 295 295 295 295 294 294 294
323 323 322 320 319 317 316 315 314 313 311 310 309 308 308 307 306 306 305 305 305 305 305 304 304 303 304 305 304 303 302 302 301 301 301 300 300 300 300 300 300 300 299 299 299 299 298 298 297 297 297 297 296 296 296 296 296 295 295 295 295 295 295 295 295 295 294 294 294
324 324 323 321 319 318 317 316 315 314 312 311 310 308 308 307 307 306 306 305 305 305 305 304 304 304 304 305 304 303 302 302 301 301 301 301 301 300 300 300 300 300 299 299 299 298 298 297 297 296 296 296 296 296 296 296 296 296 295 295 295 295 295 295 295 295 294 294 294
324 324 323 321 320 318 317 316 315 314 313 311 310 309 308 308 307 307 306 306 306 305 305 304 305 305 305 304 303 303 302 301 301 301 301 301 300 300 300 300 299 299 299 298 298 298 298 297 297 296 296 296 296 296 296 296 296 296 296 295 295 295 295 294 295 295 294 294 294
323 324 323 322 320 319 318 317 316 314 313 311 310 309 309 309 308 307 307 306 306 305 305 305 305 305 305 304 303 302 302 301 300 300 300 301 300 300 299 299 299 298 298 298 298 298 297 297 296 296 296 296 296 296 296 296 296 296 296 296 295 295 296 296 295 295 295 294 295
323 323 323 322 320 319 318 317 316 315 313 312 311 310 309 307 308 308 307 306 305 305 306 305 305 305 305 304 303 302 302 301 300 300 300 300 300 299 299 299 298 298 298 297 297 297 297 297 296 296 295 296 296 296 296 296 296 295 295 296 295 295 295 296 296 295 295 295 295
323 323 323 322 321 319 318 317 316 315 313 312 311 310 309 307 308 308 307 306 306 306 306 306 305 305 304 304 303 302 301 301 300 300 300 300 300 299 299 299 298 298 297 297 297 297 297 297 296 295 295 296 296 296 296 296 296 295 295 296 295 295 295 295 295 295 295 295 295
323 323 323 323 321 319 318 317 316 315 313 312 311 310 309 309 309 309 307 306 307 306 306 306 306 306 305 304 303 302 301 301 300 300 300 300 300 299 299 299 298 298 297 297 297 297 297 296 295 295 295 295 296 296 296 296 296 295 295 296 295 295 295 295 295 296 295 295 295
323 323 323 323 321 319 318 317 316 315 313 312 311 310 309 309 309 309 308 308 307 306 306 306 306 305 305 304 303 302 301 301 300 300 300 299 299 299 299 299 298 298 297 297 297 297 296 296 296 295 295 295 296 296 296 296 295 295 295 295 295 295 296 296 296 296 296 295 295
324 323 323 323 321 319 317 317 316 314 313 312 311 310 310 309 309 309 308 308 307 306 306 306 306 305 305 304 302 301 301 300 300 300 300 299 299 299 299 299 298 298 297 297 297 297 296 296 296 295 295 295 296 296 297 296 295 295 295 295 295 296 296 296 297 296 295 295 294
324 323 322 322 321 319 317 317 316 315 313 312 312 311 310 309 309 308 309 309 308 307 306 305 305 305 305 304 302 301 301 300 300 300 300 299 299 299 299 298 298 298 297 297 297 297 296 296 296 295 295 295 295 296 296 296 295 295 295 295 296 296 296 296 297 296 295 295 295
324 323 322 322 320 319 317 316 316 315 314 313 312 311 311 310 309 309 309 309 308 307 306 305 304 305 305 303 302 301 301 300 300 300 300 300 299 299 299 298 298 297 297 297 297 297 296 296 296 296 295 295 295 295 295 295 295 295 295 295 296 296 296 296 296 296 295 295 294
324 323 322 322 320 319 317 317 316 315 314 313 312 312 311 311 310 309 308 308 308 307 306 305 304 305 305 304 302 301 301 300 300 300 300 300 299 299 299 298 298 297 297 297 297 297 297 297 297 296 296 296 295 295 295 295 295 295 295 296 296 296 296 296 296 296 295 295 294
324 323 322 321 320 319 318 317 316 315 315 314 313 312 312 311 310 309 308 308 307 307 306 305 304 305 306 306 303 301 301 300 300 300 300 300 300 299 299 298 298 297 297 297 297 297 297 296 297 297 297 296 295 295 295 295 295 295 295 295 296 296 296 296 296 296 296 295 294
324 323 322 321 320 319 318 316 316 316 315 314 313 312 312 312 310 309 309 308 307 306 306 305 304 305 305 306 304 302 301 301 300 300 300 300 300 300 299 299 298 298 297 297 297 297 297 297 296 296 296 296 295 295 295 295 295 295 295 295 296 296 296 297 297 296 296 296 295
324 323 322 322 320 320 318 317 316 316 316 315 313 313 312 312 310 309 308 308 307 307 306 305 304 304 304 305 304 303 302 302 301 301 301 300 300 300 299 299 298 298 297 297 297 297 297 297 297 296 296 295 295 295 295 295 295 295 295 296 296 297 297 297 297 297 297 296 296
324 324 323 322 321 320 319 318 317 316 316 315 313 313 312 312 310 309 309 308 308 308 307 306 304 304 303 303 303 302 302 303 302 301 301 300 300 300 299 299 298 298 297 297 297 297 297 297 296 296 296 295 295 295 295 295 295 295 296 296 297 297 298 298 298 298 297 297 296
325 324 323 323 322 321 319 318 317 316 316 315 314 313 312 312 311 309 309 309 308 308 307 307 306 304 303 303 302 301 301 302 302 302 301 300 300 300 299 299 299 298 297 297 297 297 297 296 296 296 295 295 295 295 295 295 295 296 296 296 297 298 298 298 298 298 298 297 297
325 325 324 323 323 320 319 318 317 316 315 315 314 313 312 312 311 310 309 309 308 308 308 308 307 305 304 303 302 301 301 302 302 302 301 301 300 300 299 299 299 298 297 297 297 297 296 297 296 296 295 295 295 295 295 295 296 296 296 297 297 298 298 298 299 298 298 298 297
326 325 325 324 323 321 320 318 317 316 315 314 314 313 312 312 311 310 309 309 308 308 308 308 307 306 305 303 302 302 301 301 302 302 301 301 300 300 300 299 299 298 298 298 297 297 296 296 296 296 296 295 295 295 295 295 296 296 296 297 297 298 298 298 299 298 298 298 297
326 325 324 324 323 322 320 318 317 316 315 315 314 313 313 312 311 310 310 309 308 308 308 308 307 306 305 304 303 302 301 301 302 301 301 301 301 300 300 299 298 298 298 297 295 295 295 295 296 296 296 296 295 295 295 296 296 296 296 296 297 297 297 298 298 298 298 298 298
326 325 324 324 323 322 321 319 318 316 315 315 314 313 312 312 311 311 310 308 308 307 307 307 307 305 304 304 303 302 302 302 302 302 302 301 300 300 299 299 298 298 297 296 294 294 294 294 294 295 295 296 296 295 295 296 296 296 296 296 296 297 297 297 297 298 298 298 298
326 326 325 324 323 322 321 320 318 317 316 315 314 313 312 312 311 311 309 308 307 307 306 306 306 304 303 304 303 303 302 302 303 302 302 301 300 299 299 298 298 298 297 295 293 293 293 294 293 294 294 296 296 295 295 295 295 296 296 296 296 296 296 296 297 297 298 298 298
326 325 325 324 323 323 322 321 319 318 316 315 314 313 313 312 311 310 308 307 306 306 306 305 305 305 304 305 304 304 303 303 302 302 301 300 299 298 298 297 297 297 296 294 293 293 293 294 294 293 293 294 295 295 295 295 295 295 295 296 295 296 296 296 296 297 297 297 297
325 325 325 324 323 322 322 321 320 318 317 316 315 314 313 312 310 309 308 306 306 306 305 305 305 306 306 305 304 304 303 302 302 301 300 299 298 298 298 298 298 297 295 293 293 293 293 294 293 293 293 293 295 295 295 295 295 295 295 295 295 296 296 296 297 297 297 297 297
325 325 324 323 323 323 322 321 320 319 318 316 315 314 313 311 310 308 307 306 306 306 306 306 306 306 305 305 304 303 302 301 301 300 299 298 298 298 298 298 298 297 295 292 293 293 294 294 293 292 292 293 293 295 295 295 295 295 295 295 296 296 296 297 297 297 297 296 296
325 324 323 323 322 322 321 322 321 319 318 316 315 314 313 311 310 309 308 307 307 306 305 306 306 305 305 304 303 302 301 300 300 299 299 299 298 298 299 299 299 297 294 292 293 293 294 294 293 292 292 292 293 294 295 295 295 295 296 296 296 296 297 297 297 297 296 296 296
324 323 322 321 321 321 321 321 320 319 318 317 316 315 313 312 311 310 309 308 307 306 305 305 304 303 303 302 301 300 300 300 300 300 300 299 299 298 298 299 299 297 294 292 293 293 293 294 293 292 292 291 292 294 295 295 296 296 296 296 296 297 297 297 297 297 296 296 296
323 322 321 320 320 319 318 316 316 315 315 315 314 313 312 311 310 309 307 306 305 304 304 303 303 302 301 300 300 299 299 299 299 299 299 298 298 297 298 298 299 297 294 292 292 293 293 293 293 292 291 291 292 294 295 296 296 296 296 296 296 297 297 297 297 297 296 296 296
322 321 320 319 317 314 313 312 311 311 310 310 309 309 308 307 306 305 304 303 303 303 303 302 302 302 301 300 300 300 299 298 299 299 299 299 298 298 298 298 299 297 294 291 292 292 293 293 293 292 291 290 292 294 295 296 295 295 295 296 296 296 296 296 296 296 296 296 296
321 320 319 317 313 311 311 310 309 308 307 306 306 305 305 304 304 303 302 302 302 302 302 302 302 302 301 301 300 300 299 298 299 299 299 298 298 297 297 298 299 296 293 291 292 292 292 293 293 292 291 291 292 294 295 295 295 295 295 295 295 295 296 296 296 296 296 296 296
320 319 316 313 311 310 310 309 308 307 306 305 305 305 305 304 303 303 302 301 301 302 302 302 302 302 301 301 301 300 299 299 299 299 298 298 298 298 298 298 299 296 292 291 292 292 292 292 292 292 291 292 293 294 295 295 295 294 294 294 294 294 295 295 295 295 296 296 296
318 316 313 310 310 309 309 308 308 307 307 306 306 306 305 304 303 303 302 301 302 302 302 302 302 301 301 301 301 301 300 300 300 299 298 298 298 298 298 298 299 296 292 291 291 292 292 292 292 291 291 292 293 294 294 294 294 294 294 294 294 294 294 294 295 295 295 296 296
316 314 311 310 309 309 309 308 308 307 307 307 306 306 305 305 304 303 302 301 302 302 302 302 302 302 302 302 302 302 301 301 300 299 298 298 298 298 298 298 300 296 292 290 291 291 291 292 291 291 291 292 293 294 294 294 293 293 293 293 293 293 294 294 295 295 296 296 295
314 312 311 310 310 309 309 309 308 308 307 307 307 306 306 305 305 304 303 302 303 303 303 303 302 302 302 302 302 302 302 302 300 299 298 298 298 298 297 298 299 296 292 290 290 291 291 291 291 291 291 292 293 294 294 293 293 293 292 292 293 293 294 295 295 296 296 296 295
313 312 311 311 310 310 309 309 308 308 308 307 307 306 306 306 305 304 304 304 304 304 304 303 303 303 303 301 302 302 302 302 301 300 299 299 298 297 296 297 298 295 292 290 290 291 291 291 291 291 291 292 293 294 293 293 292 292 292 292 293 293 294 295 296 296 296 296 295
313 312 311 311 310 309 309 308 308 308 308 307 307 306 305 305 305 305 305 305 305 304 304 304 304 304 303 301 302 302 302 301 301 300 299 298 297 296 295 297 297 295 292 290 291 291 291 292 291 291 291 292 292 293 293 293 292 292 292 293 293 294 294 295 295 295 296 296 296
Wind_Speed
12 10 9 9 8 8 8 7 7 7 7 8 8 8 8 8 8 8 7 7 7 7 7 7 7 8 8 10 11 10 10 9 9 9 9 9 8 8 8 8 8 7 7 7 7 6 6 6 5 4 4 4 4 4 4 4 4 4 4 4 4 4 4 4 4 4 4 4 3
13 12 11 10 9 8 8 7 7 7 7 7 7 8 8 8 8 8 8 8 8 7 7 7 8 9 10 11 11 11 10 9 10 9 9 10 9 9 9 8 8 8 8 8 7 6 5 6 5 5 4 4 4 4 4 4 4 4 5 5 4 4 4 4 4 4 5 4 4
14 13 12 12 11 10 9 8 8 9 9 8 8 8 8 8 8 8 8 8 8 8 7 6 8 10 11 12 11 11 11 10 10 10 10 9 10 10 9 8 8 9 9 8 7 6 5 5 5 4 4 5 5 4 4 4 4 4 5 5 4 4 3 4 4 4 4 3 4
15 14 14 13 13 13 11 9 10 11 11 9 9 9 8 7 7 7 7 8 9 8 8 7 9 10 11 11 12 12 11 11 11 11 10 10 10 10 10 9 9 9 9 8 8 7 6 5 4 4 4 6 6 5 5 4 4 4 4 4 4 4 4 3 3 3 3 3 3
16 15 14 13 14 14 12 11 12 12 11 9 9 8 8 8 7 7 7 8 8 8 8 9 9 9 10 11 13 13 12 12 12 11 11 11 11 11 10 10 10 10 9 9 9 8 7 6 4 4 4 5 6 5 5 5 5 5 4 3 3 3 3 3 3 3 3 3 3
16 15 14 13 14 13 11 10 12 12 11 10 10 10 9 8 8 8 8 8 8 9 9 9 9 9 9 10 12 12 12 12 11 11 12 12 11 11 11 11 10 10 9 9 9 9 8 7 4 4 4 4 5 5 6 7 6 5 5 4 4 3 3 4 3 3 3 3 3
16 16 16 15 15 14 12 11 11 11 11 10 11 12 11 10 10 10 10 9 8 8 8 8 8 8 9 10 11 11 10 10 11 12 12 12 11 11 12 11 11 10 10 10 9 9 8 7 5 4 4 4 4 6 7 7 6 6 5 5 4 4 4 4 3 3 3 4 5
17 17 17 16 16 16 15 14 12 11 10 10 12 13 13 12 12 12 11 9 8 8 8 8 8 9 9 10 11 10 10 10 11 11 11 11 11 12 12 12 12 11 11 10 10 9 8 6 5 4 4 4 4 5 7 8 7 6 6 6 5 4 3 3 3 3 3 5 5
16 17 17 17 17 17 16 15 14 12 11 10 12 12 12 12 12 12 11 10 10 9 9 9 9 10 10 11 11 11 11 11 11 11 10 10 12 13 13 12 13 12 11 11 10 10 9 6 5 4 4 4 4 5 7 8 8 7 6 5 5 4 4 3 3 3 3 4 5
16 17 17 16 16 16 16 16 14 13 12 11 11 11 11 11 11 10 10 9 10 10 11 10 10 10 11 11 12 11 11 11 11 11 11 11 13 14 13 12 13 13 12 11 10 11 10 7 6 5 5 4 5 6 7 9 9 8 6 4 5 5 4 3 3 3 4 4 5
17 17 17 15 16 16 16 15 14 13 12 11 11 11 11 10 9 9 8 8 9 11 12 12 12 12 11 11 11 11 11 11 11 11 12 12 13 14 14 13 14 14 13 12 11 10 9 7 7 7 7 6 6 7 8 9 9 8 7 5 6 6 5 4 4 4 5 6 6
18 17 17 16 16 16 16 15 13 12 12 12 12 12 11 11 10 9 9 9 10 11 11 12 12 12 12 10 11 11 11 11 11 11 12 12 13 13 14 14 14 14 14 13 11 10 9 9 9 9 9 8 6 7 8 9 9 8 7 6 7 6 6 5 6 7 7 8 8
18 17 17 16 17 17 16 15 13 13 13 13 13 13 12 11 11 11 10 10 10 10 10 11 11 12 12 11 12 12 12 12 12 11 11 12 12 13 14 14 14 15 14 13 12 10 10 10 10 11 10 10 7 7 7 9 9 9 8 8 7 6 5 7 8 10 10 10 10
18 17 17 17 17 17 16 15 13 13 13 14 14 13 12 12 12 11 11 10 10 10 10 10 10 10 10 12 13 14 14 13 13 13 13 12 12 13 14 14 14 14 14 12 12 12 12 11 11 11 11 11 9 8 8 9 9 9 8 8 8 7 6 7 10 11 12 11 10
18 18 17 17 17 16 15 15 13 12 13 14 14 13 12 12 12 11 11 11 11 10 10 10 9 9 10 12 14 15 15 14 15 15 15 14 14 14 14 14 15 14 13 12 12 12 13 12 12 12 11 11 10 9 8 8 8 8 8 9 8 8 8 9 11 12 12 11 11
18 18 18 17 17 16 15 15 12 12 13 13 13 13 12 12 11 11 11 12 11 10 10 10 10 9 9 11 13 14 15 14 15 16 16 16 15 15 15 15 15 15 14 14 13 12 12 12 11 11 11 11 11 10 9 8 8 8 9 9 9 9 10 11 12 13 13 12 11
18 18 18 18 18 17 16 15 12 12 12 13 14 13 12 11 11 11 11 12 11 10 11 12 11 9 8 9 11 12 13 14 14 15 15 16 16 15 15 15 15 15 15 15 14 13 13 11 10 10 11 11 11 10 9 9 9 9 9 10 9 10 11 11 12 13 13 12 11
18 18 18 18 18 18 17 16 14 13 13 14 14 13 12 11 11 11 11 12 11 12 13 13 12 11 10 9 10 11 12 13 14 14 14 15 15 15 15 15 15 15 15 14 14 14 13 12 11 10 9 9 9 10 10 10 9 10 10 10 10 10 11 12 13 13 13 12 12
18 18 18 18 18 18 17 17 16 15 14 14 14 13 13 12 12 12 12 12 12 13 13 13 13 12 12 11 11 11 11 13 14 14 14 15 15 15 15 15 15 15 15 14 14 14 13 12 11 9 8 8 9 10 10 10 10 10 10 10 10 10 11 12 13 13 13 12 12
18 18 18 18 18 17 17 16 16 15 14 13 14 14 13 13 13 14 14 14 13 13 13 13 13 13 13 13 13 12 11 11 14 15 16 15 16 16 16 16 16 15 15 15 14 14 13 12 11 9 8 9 10 10 10 10 10 10 9 9 9 10 11 12 13 13 13 13 12
18 18 18 17 17 17 16 16 15 14 14 13 14 14 14 13 14 15 15 16 15 14 14 14 14 14 13 13 14 14 13 10 13 15 16 16 17 17 17 16 16 16 15 15 14 14 13 12 10 9 9 10 10 10 10 9 9 9 9 8 8 10 11 12 13 13 13 13 13
17 17 17 17 16 16 15 15 14 14 14 14 14 14 14 13 14 15 15 16 15 15 14 13 13 13 14 13 14 14 13 10 12 14 15 15 16 16 16 15 16 16 15 15 14 13 12 11 10 10 10 10 10 10 10 9 9 9 9 8 9 10 11 12 12 13 13 13 13
17 16 16 15 15 15 14 14 14 14 14 14 14 14 14 14 14 15 15 15 15 15 14 12 12 13 13 13 14 14 13 11 12 12 13 14 14 15 15 14 15 16 15 14 13 12 11 10 10 10 10 10 11 11 11 10 9 9 9 10 10 11 11 11 12 13 13 13 13
16 15 14 13 14 14 14 14 14 14 14 14 14 14 14 14 15 15 15 15 15 15 15 13 12 12 12 13 13 14 14 13 13 13 13 13 13 14 14 13 13 13 12 10 10 10 10 9 10 10 11 10 11 11 10 10 10 9 10 10 10 11 11 11 12 13 14 14 13
15 14 14 13 14 14 14 14 15 15 15 14 14 14 15 15 15 15 14 15 15 15 15 15 13 11 10 11 12 13 13 14 13 13 12 12 12 11 11 10 9 9 8 8 10 12 13 12 11 11 11 10 10 10 9 9 9 10 10 10 10 10 10 11 13 14 14 14 12
13 14 14 14 14 14 14 15 15 15 15 14 14 14 14 14 14 14 14 14 14 14 15 15 13 11 10 10 11 12 12 12 12 12 11 11 10 10 9 8 8 7 7 8 13 16 16 15 13 11 10 9 9 8 8 8 9 10 10 10 10 10 10 11 12 13 14 13 11
12 13 13 13 14 14 14 15 15 15 14 14 14 14 14 13 13 13 13 13 13 13 13 12 11 10 9 9 10 11 11 10 10 10 10 10 10 10 10 8 7 6 6 9 14 16 16 15 13 11 9 8 8 7 7 7 8 9 9 10 10 10 11 11 12 13 13 11 10
12 12 13 13 13 14 14 14 14 14 14 14 14 14 13 13 13 13 13 12 12 11 10 9 8 7 7 7 9 10 11 10 9 9 8 9 9 9 9 7 6 6 7 10 13 14 14 13 12 10 9 7 6 6 7 7 7 8 8 9 9 10 11 12 12 12 11 9 8
12 12 12 13 13 13 13 13 14 14 14 14 14 13 13 13 12 12 11 11 11 10 8 6 6 6 6 7 8 9 10 10 9 8 8 8 8 7 7 6 6 8 10 12 12 12 11 11 10 10 9 8 6 5 5 6 6 7 7 8 8 9 11 12 12 11 9 7 7
11 11 11 12 12 12 12 12 12 13 13 12 12 13 12 12 11 11 11 11 10 9 7 6 6 6 7 8 8 9 9 10 9 8 8 8 7 7 6 6 7 8 10 13 12 12 11 10 10 10 10 10 7 6 5 5 6 6 7 7 8 10 11 12 12 11 9 7 7
11 10 10 10 10 10 10 10 10 10 11 11 12 12 12 11 11 11 11 11 9 8 7 7 8 8 8 7 7 7 7 7 7 6 7 7 7 7 7 7 7 8 10 12 12 12 11 11 11 10 10 11 8 7 6 6 6 6 7 7 9 10 11 11 11 10 9 9 9
11 10 9 9 8 8 7 5 4 6 9 11 12 12 11 11 10 10 9 9 8 7 7 8 8 8 8 7 7 6 7 7 6 6 6 6 7 7 6 6 7 8 9 12 12 13 12 12 12 12 12 12 9 8 7 7 7 7 7 8 10 11 11 10 10 10 10 10 10
10 10 9 8 7 5 5 6 6 6 6 7 7 8 7 8 7 7 7 7 8 8 8 8 8 8 7 7 7 7 8 8 7 7 6 6 7 7 6 6 6 7 8 12 13 13 14 14 13 13 13 13 10 9 8 8 7 7 7 8 10 11 12 13 12 12 11 12 11
10 10 9 8 8 9 11 11 11 10 10 10 9 9 9 9 9 9 8 6 6 6 7 7 7 7 6 7 7 8 8 7 7 7 6 6 6 6 6 5 5 6 8 12 13 14 15 15 15 15 15 15 11 9 9 9 8 8 8 9 10 11 12 14 14 14 13 13 12
10 10 10 11 12 12 12 12 12 12 12 12 11 11 10 10 10 10 8 7 6 6 6 6 6 6 6 7 7 8 7 7 7 7 6 6 6 6 6 6 5 6 9 12 13 14 16 16 17 17 16 14 10 9 9 10 9 10 10 11 12 13 14 15 15 14 13 13 12
9 10 12 14 13 13 12 12 12 12 12 11 10 10 9 10 10 9 8 7 7 7 7 7 6 6 6 6 6 6 7 7 7 7 7 6 6 6 6 7 7 7 9 12 13 14 15 16 16 16 15 12 9 8 9 9 9 10 12 12 13 14 15 15 15 14 13 12 12
9 11 14 15 13 12 12 12 12 11 11 9 9 9 9 10 9 8 7 7 7 8 7 7 7 6 6 6 6 6 6 7 8 7 7 7 7 7 7 7 8 7 9 11 13 14 14 14 14 14 12 10 8 8 9 9 9 10 11 13 14 14 15 14 13 12 12 12 11
12 13 14 14 13 12 11 10 10 10 10 9 8 8 9 9 9 8 7 6 7 8 8 7 7 7 7 7 7 7 7 8 8 8 8 7 8 8 8 7 8 7 8 11 12 13 13 13 13 13 12 9 9 9 9 8 9 9 10 11 12 12 12 11 9 9 10 11 11
13 14 14 13 13 12 11 10 10 9 9 9 8 8 8 8 8 7 7 6 6 7 7 7 8 8 7 7 7 7 7 8 8 8 8 8 8 8 7 7 7 7 8 11 12 13 13 14 14 14 14 11 10 9 8 8 9 9 10 10 10 10 10 9 8 8 9 10 12
13 13 13 12 11 11 11 10 10 9 8 8 8 8 8 7 6 7 7 6 5 5 6 6 7 8 7 7 7 7 7 8 8 8 8 8 8 7 7 7 6 6 9 12 13 14 15 15 16 17 15 11 10 9 7 7 8 9 9 9 9 9 8 8 8 8 8 10 12
12 11 11 10 10 11 11 11 10 9 7 7 7 7 6 5 5 6 6 5 5 4 4 4 6 7 7 7 6 7 7 7 7 7 7 7 6 6 6 6 6 7 9 12 14 15 16 17 18 18 16 11 9 8 7 6 7 8 10 9 9 8 8 8 8 8 8 9 10
Wind_Direction
178 174 169 168 168 168 169 171 171 169 168 173 174 174 172 171 170 172 173 174 176 178 179 180 180 180 180 178 178 180 182 181 177 172 166 161 161 165 169 171 168 166 166 168 167 166 165 162 159 156 156 157 157 156 156 158 162 165 167 167 163 160 162 167 167 165 163 164 167
181 176 171 169 170 169 169 171 171 170 170 175 175 174 173 173 172 173 175 177 178 178 178 179 179 180 179 177 176 178 179 179 175 170 164 161 164 167 170 172 168 168 168 170 168 169 170 166 161 158 156 156 155 157 160 165 166 168 170 170 164 162 165 172 172 170 169 172 172
183 179 174 173 173 172 171 173 173 173 173 176 176 175 173 174 172 173 176 178 178 177 178 179 181 180 179 176 175 176 178 177 173 168 164 163 166 169 171 172 169 169 169 170 169 172 174 171 165 160 158 157 157 159 163 169 168 171 172 171 165 163 167 176 174 172 172 179 176
186 182 178 176 177 176 175 175 176 175 174 175 176 175 174 174 172 172 174 174 176 178 180 182 182 181 179 176 174 175 176 175 169 165 163 164 168 171 172 171 170 169 169 168 169 173 176 175 170 166 161 159 158 160 165 171 170 173 174 172 165 164 169 176 174 172 175 184 182
188 185 181 178 179 178 178 177 176 175 174 174 175 175 174 174 172 171 172 174 179 181 182 182 183 181 179 177 174 174 174 172 167 164 165 168 170 171 171 172 170 169 169 167 169 172 175 174 174 172 169 164 163 164 166 170 170 172 173 171 165 166 170 175 173 173 175 186 187
190 187 183 179 180 179 179 179 177 176 175 175 176 175 174 174 172 172 173 177 178 178 178 180 182 181 178 176 174 174 173 170 166 166 167 170 171 171 170 171 171 170 169 168 170 172 174 174 176 178 176 170 167 166 167 169 171 172 172 170 167 167 170 173 173 174 178 188 191
192 189 185 181 181 181 181 180 178 177 176 177 178 177 175 174 172 172 172 172 172 173 174 178 180 179 175 174 175 174 172 168 166 167 169 171 171 171 170 171 171 171 170 170 171 172 174 175 177 181 182 179 173 170 169 170 171 172 171 168 167 168 170 174 172 174 182 192 196
193 191 187 182 183 183 183 182 180 179 179 181 181 179 176 172 170 168 167 166 167 169 172 176 178 176 173 173 174 173 171 168 168 170 172 171 171 171 171 171 172 173 173 173 173 174 176 176 178 181 184 184 178 173 171 172 174 175 172 167 165 166 169 171 171 174 185 197 202
194 193 190 184 184 184 185 185 183 181 181 183 182 179 174 170 168 166 165 166 167 168 170 173 175 173 171 171 173 173 171 170 172 174 175 174 174 173 172 172 174 175 175 175 176 176 177 178 180 183 185 189 183 176 173 173 177 176 173 165 160 161 165 166 167 177 191 204 209
195 194 191 185 184 184 185 186 184 182 181 182 180 176 171 167 166 166 167 168 166 166 168 171 171 170 169 171 173 172 172 174 175 177 179 179 177 176 175 174 176 176 176 177 177 178 178 179 182 183 185 190 187 180 175 174 177 177 173 163 156 156 159 162 175 192 206 214 217
195 194 192 186 183 183 184 185 184 183 182 181 178 173 169 167 167 167 168 166 165 168 170 170 169 168 168 171 172 172 173 175 177 180 182 184 182 180 178 177 178 178 178 178 178 179 180 181 184 184 184 189 189 183 177 175 177 176 173 163 156 154 157 169 197 216 223 224 224
195 194 192 186 182 181 183 185 184 184 183 182 180 176 171 168 168 168 167 167 167 171 172 171 169 169 169 171 171 171 173 176 178 181 184 187 185 183 181 179 180 180 179 180 179 180 183 184 186 185 184 187 191 186 179 176 177 176 173 166 155 152 160 185 211 223 228 228 227
194 193 191 186 181 181 183 185 185 184 184 185 183 180 176 172 170 170 169 170 171 172 174 173 171 169 168 170 170 171 173 176 178 181 185 189 189 187 184 182 182 182 181 181 181 182 185 186 187 186 185 185 190 186 178 176 177 176 170 158 147 149 168 197 217 226 229 230 228
193 193 191 186 181 181 183 185 186 186 186 187 186 184 180 175 173 173 174 175 174 175 175 174 171 169 168 169 169 170 172 174 177 180 184 189 191 190 188 185 185 184 183 182 183 185 187 187 189 188 186 184 187 183 178 176 176 171 161 147 146 158 181 206 222 229 232 233 231
193 192 190 187 182 181 183 186 187 187 187 187 187 186 183 179 176 175 177 178 178 177 176 174 170 168 168 170 170 171 172 174 177 179 183 187 191 191 190 188 187 186 185 183 184 186 188 189 190 189 186 182 183 180 176 173 167 158 149 145 154 172 192 210 223 231 236 238 237
192 192 190 187 184 183 184 186 188 188 187 187 187 187 186 183 177 176 178 181 180 180 177 173 168 166 167 172 172 173 174 177 179 181 183 186 190 191 191 189 188 188 187 185 186 188 189 189 190 190 187 181 179 176 171 163 154 148 147 152 166 183 199 212 223 231 237 242 241
192 191 191 189 186 185 185 187 188 188 187 186 186 187 187 185 178 176 178 182 182 182 179 173 166 163 166 173 175 177 178 180 183 184 185 187 189 190 190 190 190 189 189 187 187 189 190 190 190 191 188 180 174 168 161 153 151 151 155 162 177 192 205 215 225 233 239 243 243
192 192 191 190 189 187 187 187 188 188 187 185 185 186 186 185 178 176 178 182 183 184 182 172 167 167 170 176 181 182 182 183 186 187 188 188 188 190 190 191 191 191 190 189 189 190 190 190 190 191 187 175 164 157 153 152 155 158 163 170 186 200 212 220 228 234 240 244 244
193 192 192 192 191 189 188 187 188 188 187 185 183 183 185 184 178 176 178 183 185 187 184 175 171 173 177 182 186 188 187 186 188 190 191 190 189 190 191 191 191 191 192 191 190 190 191 189 189 187 180 163 155 152 153 156 159 163 168 177 193 207 218 226 232 237 242 245 246
193 193 193 193 191 190 188 187 187 187 186 183 181 181 183 185 180 178 179 183 186 189 188 180 176 178 182 185 188 191 193 192 189 190 192 192 190 190 191 191 191 192 192 192 190 189 189 188 185 178 166 153 153 154 156 158 162 166 172 182 199 213 223 230 236 240 244 247 248
193 193 193 193 191 189 187 185 185 184 184 183 180 181 183 187 183 181 181 183 185 190 192 188 182 181 183 185 188 191 194 195 191 191 191 192 191 190 190 190 190 191 192 192 189 187 185 183 175 165 157 153 155 157 158 161 165 169 175 187 205 218 227 233 239 243 247 249 249
193 193 193 193 191 189 186 182 182 182 183 183 181 181 183 189 188 185 182 182 184 190 194 194 188 184 183 184 186 189 193 196 195 193 193 192 191 190 189 189 189 191 192 192 188 184 179 172 162 155 154 156 159 161 163 165 167 172 180 194 210 222 230 236 242 246 249 250 250
192 191 191 191 190 187 183 180 180 182 184 184 183 183 185 191 191 187 183 182 185 190 194 197 192 188 186 185 186 188 192 196 198 198 196 194 192 190 189 189 190 191 192 191 185 178 169 157 152 154 157 161 165 168 170 171 172 177 186 200 214 224 233 239 245 248 250 251 250
189 187 186 187 187 185 182 179 180 183 185 187 186 185 187 190 191 189 185 183 186 190 193 196 194 191 187 186 187 189 192 195 198 199 199 197 194 191 190 190 191 191 190 186 177 167 158 150 155 162 167 170 172 173 174 175 177 182 190 203 216 226 235 242 247 250 252 251 249
185 183 182 183 186 185 184 182 183 185 187 189 188 187 188 189 190 188 186 185 186 189 192 195 194 191 187 186 187 189 191 195 197 199 199 197 194 191 189 188 188 189 186 178 159 153 151 156 164 170 174 175 176 176 177 178 181 187 195 206 218 228 238 245 250 253 254 253 250
181 180 181 183 186 187 187 186 186 187 188 189 189 188 187 187 187 187 186 185 185 187 189 192 192 190 186 185 186 187 190 194 195 196 195 193 190 188 186 185 184 183 176 162 151 150 153 160 166 169 172 174 175 176 177 181 186 192 201 211 221 230 239 246 251 255 256 257 256
180 180 181 184 187 189 190 189 188 188 188 189 188 187 186 185 185 185 184 183 183 184 186 189 189 186 183 184 185 186 188 191 191 190 188 186 184 183 182 180 177 171 158 145 145 147 151 157 160 162 164 172 174 176 178 182 189 197 206 215 224 232 239 247 252 256 258 260 263
181 182 183 185 189 192 192 191 190 189 188 188 187 186 184 183 182 182 181 180 179 179 181 184 184 182 180 183 184 185 185 185 184 182 181 180 180 179 175 170 162 147 133 130 136 140 145 151 155 157 159 168 175 178 180 183 191 199 209 218 226 234 240 246 251 254 256 258 261
183 184 185 187 190 193 195 194 191 189 187 186 184 183 182 181 179 177 175 174 173 174 176 180 180 179 179 183 182 180 178 176 175 174 172 173 172 168 160 152 140 126 119 122 131 138 146 153 157 159 161 169 176 180 183 187 194 203 211 220 227 233 239 244 248 250 252 253 254
183 184 186 188 191 194 196 197 192 187 182 180 180 179 178 176 173 170 170 171 173 174 174 175 175 177 178 178 175 173 172 171 169 167 165 164 159 151 143 138 132 124 122 128 138 147 156 164 167 167 169 172 178 183 188 193 199 207 214 222 228 234 239 244 247 249 250 249 251
181 182 184 187 190 194 197 199 193 184 176 172 174 176 175 172 170 170 170 173 172 169 165 164 166 168 168 166 163 161 159 155 149 148 149 150 146 141 137 137 136 130 129 138 148 158 168 175 179 179 178 178 182 188 193 197 204 211 218 225 231 237 242 247 249 249 249 249 251
177 177 179 182 187 192 195 192 181 171 168 167 172 175 175 170 167 165 164 161 155 151 149 152 155 154 152 146 141 137 132 127 124 127 133 140 142 141 142 146 145 139 139 148 158 167 176 184 187 188 187 186 189 194 199 202 209 217 225 231 237 241 246 250 251 251 251 250 252
171 170 171 175 170 146 106 81 78 89 110 133 143 146 145 139 133 130 131 131 133 135 138 140 140 138 135 131 127 125 124 124 127 131 135 140 142 143 146 154 154 147 146 156 166 175 182 189 192 194 194 192 195 200 204 208 214 222 230 236 240 245 249 252 253 253 252 252 254
164 164 160 149 118 99 90 85 81 79 81 87 90 94 98 101 102 103 106 109 114 120 124 124 125 124 124 124 126 128 131 132 134 137 140 142 143 145 152 166 169 158 154 162 173 181 187 192 195 197 197 195 198 203 208 213 221 228 235 240 245 248 250 251 252 253 253 254 256
159 154 141 118 105 102 100 97 92 89 87 88 88 88 90 95 99 101 102 104 106 110 113 117 118 120 123 126 130 134 137 138 140 144 148 152 151 156 165 181 186 170 162 168 179 186 191 195 198 198 198 196 199 205 211 217 226 233 239 244 248 250 251 252 253 254 255 256 258
148 135 121 109 109 109 107 104 101 98 97 96 97 97 98 100 103 105 108 111 113 117 120 123 125 128 132 135 138 141 144 148 149 153 158 162 166 172 181 193 197 182 170 173 182 189 194 197 198 197 195 193 199 207 214 221 229 237 242 246 249 251 252 253 255 257 258 260 261
125 116 113 113 115 114 112 110 109 109 108 107 109 111 113 114 115 117 120 122 126 129 132 134 139 144 149 152 154 157 157 156 156 160 165 171 179 185 191 200 203 190 176 175 182 188 192 194 193 190 188 190 200 209 216 224 232 239 244 248 250 251 252 254 256 259 262 264 265
115 113 116 119 121 120 118 117 117 117 117 119 121 124 126 126 127 130 132 136 139 143 146 148 154 159 164 166 167 167 165 163 161 164 170 178 186 191 196 203 204 190 174 175 178 181 183 183 181 180 181 190 200 209 217 226 233 240 244 248 250 251 252 255 258 262 265 267 265
117 119 122 125 126 125 123 122 121 121 122 125 129 133 135 134 135 138 142 147 150 153 155 159 165 169 171 172 173 173 172 168 165 167 173 182 189 191 193 198 198 180 165 171 174 174 174 174 175 178 183 192 201 209 217 226 234 240 244 248 251 254 256 259 262 265 267 266 263
120 123 126 128 127 126 125 123 121 120 123 129 134 137 139 138 138 142 146 150 154 158 162 167 172 174 173 172 174 175 174 171 168 169 174 182 185 184 183 186 181 164 159 169 173 174 174 176 179 184 188 195 203 211 219 227 235 241 244 248 252 256 260 263 264 265 265 265 262
121 123 124 125 124 124 123 121 120 120 122 127 132 134 135 136 138 141 145 149 156 161 167 173 178 175 170 164 166 168 169 166 163 164 167 173 171 167 165 170 161 155 159 172 177 178 180 182 187 190 193 198 205 212 220 228 236 242 246 250 253 258 262 265 265 264 264 265 264